SQ4IXR-4 Weather Reports


time (UTC)temp
F
wind
direction
speed
knots
gust
knots
rain 1hr
in
rain 24hr
in
rain mn
in
humidity
%
barometer
mb
20260906010119 58 0.0 0.0 0.00 0.00 0.00 10 1015.7
20260906004735 58 0.0 0.0 0.00 0.00 0.00 10 1015.7
20260906003351 57 0.0 0.0 0.00 0.00 0.00 10 1015.8
20260906002007 57 0.0 0.0 0.00 0.00 0.00 10 1015.7
20260906000624 57 0.0 0.0 0.00 0.00 0.00 10 1015.6
20260905235241 57 0.0 0.0 0.00 0.00 0.00 10 1015.6
20260905233858 57 0.0 0.0 0.00 0.00 0.00 10 1015.5
20260905232514 57 0.0 0.0 0.00 0.00 0.00 10 1015.5
20260905231131 57 0.0 0.0 0.00 0.00 0.00 10 1015.4
20260905225747 57 0.0 0.0 0.00 0.00 0.00 10 1015.4
20260905224404 57 0.0 0.0 0.00 0.00 0.00 10 1015.3
20260905223020 57 0.0 0.0 0.00 0.00 0.00 10 1015.4
20260905221638 58 0.0 0.0 0.00 0.00 0.00 10 1015.3
20260905220254 57 0.0 0.0 0.00 0.00 0.00 10 1015.4
20260905214911 57 0.0 0.0 0.00 0.00 0.00 10 1015.4
20260905213529 58 0.0 0.0 0.00 0.00 0.00 10 1015.2
20260905212145 57 0.0 0.0 0.00 0.00 0.00 10 1015.2
20260905210800 57 0.0 0.0 0.00 0.00 0.00 10 1015.2
20260905205416 57 0.0 0.0 0.00 0.00 0.00 10 1015.1
20260905204033 56 0.0 0.0 0.00 0.00 0.00 10 1015.2
20260905202647 56 0.0 0.0 0.00 0.00 0.00 10 1015.3
20260905201304 56 0.0 0.0 0.00 0.00 0.00 10 1015.2
20260905195921 57 0.0 0.0 0.00 0.00 0.00 10 1015.3
20260905194537 56 0.0 0.0 0.00 0.00 0.00 10 1015.3
20260905193153 56 0.0 0.0 0.00 0.00 0.00 10 1015.4
20260905191809 56 0.0 0.0 0.00 0.00 0.00 10 1015.4
20260905190426 56 0.0 0.0 0.00 0.00 0.00 10 1015.5
20260905185042 57 0.0 0.0 0.00 0.00 0.00 10 1015.7
20260905183658 56 0.0 0.0 0.00 0.00 0.00 10 1015.6
20260905182315 56 0.0 0.0 0.00 0.00 0.00 10 1015.6
20260905180931 56 0.0 0.0 0.00 0.00 0.00 10 1015.7
20260905175549 56 0.0 0.0 0.00 0.00 0.00 10 1015.7
20260905174205 56 0.0 0.0 0.00 0.00 0.00 10 1015.7
20260905172822 56 0.0 0.0 0.00 0.00 0.00 10 1015.5
20260905171439 56 0.0 0.0 0.00 0.00 0.00 10 1015.4
20260905170055 56 0.0 0.0 0.00 0.00 0.00 10 1015.4
20260905164712 56 0.0 0.0 0.00 0.00 0.00 10 1015.6
20260905163329 57 0.0 0.0 0.00 0.00 0.00 10 1015.6
20260905161947 57 0.0 0.0 0.00 0.00 0.00 10 1015.3
20260905160603 57 0.0 0.0 0.00 0.00 0.00 10 1015.3
20260905155219 57 0.0 0.0 0.00 0.00 0.00 10 1015.6
20260905153838 58 0.0 0.0 0.00 0.00 0.00 10 1015.2
20260905152501 61 0.0 0.0 0.00 0.00 0.00 88 1015.1
20260905151122 67 0.0 0.0 0.00 0.00 0.00 63 1013.6
20260905145738 68 0.0 0.0 0.00 0.00 0.00 62 1013.7
20260905144353 67 0.0 0.0 0.00 0.00 0.00 66 1013.6
20260905143007 65 0.0 0.0 0.00 0.00 0.00 74 1013.7
20260905141619 61 0.0 0.0 0.00 0.00 0.00 96 1014.1
20260905140235 60 0.0 0.0 0.00 0.00 0.00 99 1014.0
20260905134857 62 0.0 0.0 0.00 0.00 0.00 82 1014.2
20260905133523 72 0.0 0.0 0.00 0.00 0.00 41 1012.8
20260905130758 73 0.0 0.0 0.00 0.00 0.00 40 1012.4
20260905125423 78 0.0 0.0 0.00 0.00 0.00 34 1012.1
20260905124052 91 0.0 0.0 0.00 0.00 0.00 25 1011.5
20260905122704 92 0.0 0.0 0.00 0.00 0.00 24 1011.7
20260905121309 81 0.0 0.0 0.00 0.00 0.00 35 1012.0
20260905115922 79 0.0 0.0 0.00 0.00 0.00 41 1012.0
20260905114533 76 0.0 0.0 0.00 0.00 0.00 47 1012.4
20260905113147 68 0.0 0.0 0.00 0.00 0.00 58 1012.4
20260905111809 76 0.0 0.0 0.00 0.00 0.00 40 1011.9
20260905110425 76 0.0 0.0 0.00 0.00 0.00 40 1011.9
20260905105041 77 0.0 0.0 0.00 0.00 0.00 38 1011.6
20260905103656 75 0.0 0.0 0.00 0.00 0.00 40 1011.7
20260905102307 74 0.0 0.0 0.00 0.00 0.00 44 1011.5
20260905100924 75 0.0 0.0 0.00 0.00 0.00 43 1011.7
20260905095533 70 0.0 0.0 0.00 0.00 0.00 51 1011.9
20260905094151 69 0.0 0.0 0.00 0.00 0.00 51 1012.0
20260905092812 72 0.0 0.0 0.00 0.00 0.00 46 1011.8
20260905091426 74 0.0 0.0 0.00 0.00 0.00 46 1011.5
20260905090041 74 0.0 0.0 0.00 0.00 0.00 46 1011.3
20260905084701 73 0.0 0.0 0.00 0.00 0.00 46 1011.2
20260905083312 73 0.0 0.0 0.00 0.00 0.00 48 1011.0
20260905081926 69 0.0 0.0 0.00 0.00 0.00 52 1011.1
20260905080557 74 0.0 0.0 0.00 0.00 0.00 43 1010.8
20260905075219 90 0.0 0.0 0.00 0.00 0.00 29 1009.9
20260905073836 94 0.0 0.0 0.00 0.00 0.00 25 1009.5
20260905072450 91 0.0 0.0 0.00 0.00 0.00 28 1009.5
20260905071039 88 0.0 0.0 0.00 0.00 0.00 32 1009.2
20260905065656 75 0.0 0.0 0.00 0.00 0.00 42 1009.7
20260905064318 76 0.0 0.0 0.00 0.00 0.00 39 1009.2
20260905062944 92 0.0 0.0 0.00 0.00 0.00 28 1008.6
20260905061609 82 0.0 0.0 0.00 0.00 0.00 34 1008.7
20260905060223 97 0.0 0.0 0.00 0.00 0.00 25 1008.0
20260905054812 83 0.0 0.0 0.00 0.00 0.00 40 1008.1
20260905053423 67 0.0 0.0 0.00 0.00 0.00 72 1008.7
20260905052039 70 0.0 0.0 0.00 0.00 0.00 68 1008.3
20260905050651 64 0.0 0.0 0.00 0.00 0.00 85 1008.3
20260905045308 65 0.0 0.0 0.00 0.00 0.00 85 1008.2
20260905043923 64 0.0 0.0 0.00 0.00 0.00 89 1007.8
20260905042539 63 0.0 0.0 0.00 0.00 0.00 97 1007.6
20260905041156 64 0.0 0.0 0.00 0.00 0.00 10 1007.2
20260905035813 64 0.0 0.0 0.00 0.00 0.00 10 1006.9
20260905034430 65 0.0 0.0 0.00 0.00 0.00 10 1006.7
20260905033046 64 0.0 0.0 0.00 0.00 0.00 10 1006.5
20260905031703 65 0.0 0.0 0.00 0.00 0.00 10 1006.5
20260905030319 64 0.0 0.0 0.00 0.00 0.00 10 1006.5
20260905024935 64 0.0 0.0 0.00 0.00 0.00 10 1006.5
20260905023552 63 0.0 0.0 0.00 0.00 0.00 10 1006.2
20260905022209 64 0.0 0.0 0.00 0.00 0.00 10 1006.2
20260905020828 65 0.0 0.0 0.00 0.00 0.00 10 1006.1
20260905015444 66 0.0 0.0 0.00 0.00 0.00 96 1006.3
20260905014101 66 0.0 0.0 0.00 0.00 0.00 95 1006.0
20260905012718 66 0.0 0.0 0.00 0.00 0.00 94 1005.6
20260905011334 66 0.0 0.0 0.00 0.00 0.00 92 1005.9